Simultaneous Nadir Overpasses (SNOs) Predictions

Prediction of SNOs between LANDSAT-8 and METOP-B Satellite Orbit:

Table of predicted SNOs for the next 14.0 days since TLE Epoch: 9/24/2022
Index Date (LANDSAT-8) Time (LANDSAT-8) Lat,Lon (LANDSAT-8) SZA (LANDSAT-8 ) Date (METOP-B) Time (METOP-B) Lat,Lon (METOP-B) SZA (METOP-B ) Distance(km) Time Diff (sec)
1 09/24/2022 16:54:29 -81.10, 146.06 96.03 09/24/2022 16:53:39 -81.10, 145.89 96.07 2.86 50
2 09/24/2022 17:43:54 81.13, -45.84 84.06 09/24/2022 17:44:17 81.13, -45.74 84.08 1.74 23
3 09/27/2022 12:28:44 -81.10,-147.48 94.91 09/27/2022 12:28:04 -81.10,-147.61 94.94 2.38 40
4 09/27/2022 13:18:09 81.13, 20.60 85.17 09/27/2022 13:18:42 81.13, 20.72 85.20 2.10 33
5 09/30/2022 08:02:58 -81.12, -80.75 93.75 09/30/2022 08:02:28 -81.11, -80.79 93.78 1.02 30
6 09/30/2022 08:52:24 81.12, 86.94 86.27 09/30/2022 08:53:08 81.12, 86.75 86.27 3.17 44
7 10/03/2022 03:37:12 -81.11, -14.48 92.67 10/03/2022 03:36:52 -81.11, -14.38 92.67 1.71 20
8 10/03/2022 04:26:37 81.13, 153.54 87.40 10/03/2022 04:27:31 81.13, 153.50 87.42 0.75 54
9 10/05/2022 23:11:26 -81.11, 52.06 91.56 10/05/2022 23:11:17 -81.11, 51.98 91.57 1.33 9



Historial Predications of SNOs between LANDSAT-8 and METOP-B
